GW4747 Weather Reports


time (UTC)temp
C
wind
direction
speed
KPH
gust
KPH
rain 1hr
cm
rain 24hr
cm
rain mn
cm
humidity
%
barometer
mb
20260507010029 20 259 0.0 1.6 0.00 0.00 0.00 59 1016.6
20260507004532 20 270 0.0 1.6 0.00 0.00 0.00 58 1016.5
20260507003026 20 254 0.0 0.0 0.00 0.00 0.00 57 1016.6
20260507001534 20 179 0.0 1.6 0.00 0.00 0.00 56 1016.5
20260507000024 20 263 0.0 1.6 0.00 0.00 0.00 57 1016.4
20260506234526 20 253 0.0 3.2 0.00 0.00 0.00 60 1016.4
20260506233026 20 280 0.0 3.2 0.00 0.00 0.00 58 1016.3
20260506231519 21 250 0.0 3.2 0.00 0.00 0.00 58 1016.3
20260506230025 21 257 0.0 3.2 0.00 0.00 0.00 57 1016.3
20260506224524 21 226 0.0 3.2 0.00 0.00 0.00 59 1016.4
20260506223026 20 289 0.0 0.0 0.00 0.00 0.00 63 1016.5
20260506221519 20 280 0.0 3.2 0.00 0.00 0.00 61 1016.7
20260506220026 21 260 0.0 3.2 0.00 0.00 0.00 60 1016.9
20260506214508 20 269 0.0 0.0 0.00 0.00 0.00 61 1017.1
20260506213014 20 252 0.0 3.2 0.00 0.00 0.00 61 1017.2
20260506211519 20 275 0.0 3.2 0.00 0.00 0.00 60 1017.3
20260506210024 21 274 0.0 3.2 0.00 0.00 0.00 60 1017.4
20260506204524 20 257 0.0 3.2 0.00 0.00 0.00 61 1017.5
20260506203009 20 266 0.0 3.2 0.00 0.00 0.00 61 1017.5
20260506201515 21 261 0.0 3.2 0.00 0.00 0.00 59 1017.5
20260506200020 21 269 0.0 4.8 0.00 0.00 0.00 60 1017.6
20260506194526 21 275 0.0 1.6 0.00 0.00 0.00 57 1017.7
20260506193025 21 286 0.0 3.2 0.00 0.00 0.00 58 1017.9
20260506191513 21 263 0.0 3.2 0.00 0.00 0.00 57 1018.0
20260506190019 22 257 0.0 3.2 0.00 0.00 0.00 56 1018.0
20260506184528 21 253 0.0 0.0 0.00 0.00 0.00 56 1018.0
20260506183024 21 150 0.0 3.2 0.00 0.00 0.00 54 1018.1
20260506181530 20 242 0.0 3.2 0.00 0.00 0.00 58 1018.3
20260506180024 21 242 0.0 0.0 0.00 0.00 0.00 57 1018.5
20260506174522 20 274 0.0 1.6 0.00 0.00 0.00 56 1018.5
20260506173028 19 273 0.0 0.0 0.00 0.00 0.00 59 1018.7
20260506171525 18 299 0.0 0.0 0.00 0.00 0.00 60 1018.9
20260506170035 19 282 0.0 3.2 0.00 0.00 0.00 61 1018.9
20260506164520 19 343 0.0 3.2 0.00 0.00 0.00 62 1018.7
20260506163024 18 317 0.0 3.2 0.00 0.00 0.00 63 1018.9
20260506161528 18 317 0.0 3.2 0.00 0.00 0.00 65 1018.9
20260506160032 17 345 0.0 3.2 0.00 0.00 0.00 67 1018.8
20260506154529 17 18 0.0 4.8 0.00 0.00 0.00 67 1018.8
20260506153021 17 57 0.0 3.2 0.00 0.00 0.00 66 1018.8
20260506151532 16 352 0.0 3.2 0.00 0.00 0.00 67 1018.9
20260506150025 15 49 0.0 3.2 0.00 0.00 0.00 69 1018.9
20260506144529 15 26 0.0 3.2 0.00 0.00 0.00 72 1018.9
20260506143028 14 24 0.0 0.0 0.00 0.00 0.00 76 1018.9
20260506141524 13 34 0.0 0.0 0.00 0.03 0.00 77 1018.8
20260506140029 12 5 0.0 1.6 0.00 0.08 0.00 79 1018.8
20260506134525 12 360 0.0 0.0 0.00 0.15 0.00 80 1018.6
20260506133041 12 38 0.0 3.2 0.00 0.15 0.00 80 1018.5
20260506131504 12 46 0.0 0.0 0.00 0.15 0.00 80 1018.4
20260506130005 12 23 0.0 3.2 0.00 0.15 0.00 79 1018.3
20260506124503 12 351 0.0 0.0 0.00 0.15 0.00 79 1018.1
20260506123004 12 22 0.0 0.0 0.00 0.15 0.00 80 1018.0
20260506121504 12 26 0.0 0.0 0.00 0.15 0.00 80 1017.9
20260506120004 12 31 0.0 0.0 0.00 0.15 0.00 80 1017.9
20260506114503 12 12 0.0 0.0 0.00 0.18 0.00 79 1017.9
20260506113006 12 360 0.0 0.0 0.00 0.20 0.00 79 1017.9
20260506111503 12 360 0.0 3.2 0.00 0.20 0.00 78 1017.9
20260506110004 13 346 0.0 3.2 0.00 0.20 0.00 78 1017.9
20260506104506 13 10 0.0 0.0 0.00 0.20 0.00 78 1017.9
20260506103003 13 338 0.0 0.0 0.00 0.20 0.00 79 1017.8
20260506101504 13 44 0.0 0.0 0.00 0.20 0.00 78 1017.7
20260506100005 13 44 0.0 0.0 0.00 0.20 0.00 78 1017.6
20260506094504 13 44 0.0 0.0 0.00 0.20 0.00 79 1017.6
20260506093004 12 44 0.0 0.0 0.00 0.20 0.00 80 1017.6
20260506091504 12 44 0.0 0.0 0.00 0.20 0.00 80 1017.6
20260506090004 12 44 0.0 0.0 0.00 0.20 0.00 79 1017.8
20260506084504 12 44 0.0 0.0 0.00 0.20 0.00 79 1018.0
20260506083009 13 44 0.0 0.0 0.00 0.20 0.00 79 1018.2
20260506081505 13 44 0.0 0.0 0.00 0.23 0.00 79 1018.2
20260506073006 13 44 0.0 0.0 0.00 0.36 0.00 77 1018.4
20260506071506 13 44 0.0 0.0 0.00 0.36 0.00 77 1018.4
20260506061506 14 9 0.0 0.0 0.00 0.43 0.36 74 1018.2
20260506044509 15 254 0.0 0.0 0.00 0.43 0.36 70 1017.9
20260506043011 15 254 0.0 0.0 0.00 0.43 0.36 71 1017.8
20260506041514 15 254 0.0 0.0 0.00 0.43 0.36 70 1017.6
20260506040027 15 254 0.0 0.0 0.00 0.43 0.36 70 1017.4
20260506034511 15 254 0.0 0.0 0.00 0.43 0.36 69 1017.3
20260506033014 15 254 0.0 0.0 0.00 0.43 0.36 69 1017.1
20260506031514 15 268 0.0 1.6 0.00 0.43 0.36 68 1016.9
20260506030016 15 237 0.0 0.0 0.00 0.43 0.36 68 1016.7
20260506024514 15 259 0.0 1.6 0.00 0.43 0.36 67 1016.5
20260506023026 16 276 0.0 0.0 0.00 0.43 0.36 66 1016.2
20260506021528 16 252 0.0 0.0 0.00 0.43 0.36 65 1016.0
20260506020016 16 275 0.0 0.0 0.00 0.43 0.36 63 1015.9
20260506014516 17 270 0.0 3.2 0.00 0.43 0.36 60 1015.7
20260506013018 17 272 0.0 3.2 0.00 0.43 0.36 60 1015.7
20260506011516 17 265 0.0 3.2 0.00 0.43 0.36 60 1015.7